Location: Gleizolles
(44.4833°N, 6.7667°E)
Time: 16:36:47
(UTC+00:00)

Altair - Pass Details

Date: 01 July 2024
Orbit: 1502 x 1681 km, 47.2° (Epoch: 13 July)

Event Time Altitude Azimuth Distance (km) Brightness Sun altitude
Rises 23:11:22 0° 240° (WSW) 4,631 9.8 -22.2°
Reaches altitude 10° 23:14:23 10° 239° (WSW) 3,648 9.2 -22.3°
Maximum altitude 23:23:31 79° 155° (SSE) 1,536 7.3 -22.4°
Drops below altitude 10° 23:32:51 10° 70° (ENE) 3,714 9.7 -22.5°
Sets 23:35:56 0° 70° (ENE) 4,718 10.3 -22.5°
